When you browse on this site, cookies collect data to enhance your experience and personalize the content and advertising you see.
Visit our Privacy Policy to learn more. By continuing to use the site, you agree to this use of cookies and data.
  • en Belgique
  • Liste des pays
  • À 7 jours
  • Température de l'eau
  • Carte satellitaire
  • Carte météo
  • Widgets météo
  • user-avatar
    Se connecter

    Météo par heure à Zaharovo

    Ce jour, 23 Mars, Samedi

    Heure Température Précipitation Vent Pression Humidité
    00:00 -1°C° 0.1 mm 5 m/s 743 mmHg 84%
    01:00 -1°C° 0.1 mm 5 m/s 743 mmHg 84%
    02:00 -1°C° 0 mm 4 m/s 743 mmHg 85%
    03:00 -1°C° 0 mm 4 m/s 744 mmHg 87%
    04:00 -1°C° 0 mm 4 m/s 745 mmHg 88%
    05:00 -1°C° 0 mm 4 m/s 745 mmHg 89%
    06:00 0°C° 0 mm 3 m/s 746 mmHg 89%
    07:00 0°C° 0 mm 3 m/s 746 mmHg 90%
    08:00 +1°C° 0 mm 2 m/s 747 mmHg 89%
    09:00 +2°C° 0 mm 2 m/s 747 mmHg 85%
    10:00 +4°C° 0 mm 1 m/s 747 mmHg 81%
    11:00 +4°C° 0 mm 1 m/s 747 mmHg 77%
    12:00 +5°C° 0 mm 1 m/s 746 mmHg 76%
    13:00 +5°C° 0 mm 1 m/s 746 mmHg 75%
    14:00 +5°C° 0 mm 1 m/s 746 mmHg 75%
    15:00 +5°C° 0 mm 1 m/s 745 mmHg 79%
    16:00 +4°C° 0 mm 1 m/s 745 mmHg 82%
    17:00 +4°C° 0 mm 1 m/s 744 mmHg 86%
    18:00 +2°C° 0 mm 2 m/s 744 mmHg 88%
    19:00 +1°C° 0 mm 2 m/s 743 mmHg 89%
    20:00 -1°C° 0 mm 3 m/s 743 mmHg 91%
    21:00 -1°C° 0 mm 3 m/s 742 mmHg 89%
    22:00 0°C° 0 mm 3 m/s 741 mmHg 87%
    23:00 -1°C° 0 mm 4 m/s 741 mmHg 85%

    Demain, 24 Mars, Dimanche

    Heure Température Précipitation Vent Pression Humidité
    00:00 -1°C° 0.6 mm 4 m/s 740 mmHg 86%
    01:00 -1°C° 0.6 mm 4 m/s 739 mmHg 87%
    02:00 -1°C° 0.6 mm 4 m/s 738 mmHg 88%
    03:00 -1°C° 0.7 mm 4 m/s 738 mmHg 89%
    04:00 -1°C° 0.7 mm 4 m/s 737 mmHg 90%
    05:00 -1°C° 0.7 mm 4 m/s 737 mmHg 91%
    06:00 -1°C° 0 mm 4 m/s 736 mmHg 91%
    07:00 0°C° 0 mm 4 m/s 736 mmHg 92%
    08:00 +1°C° 0 mm 3 m/s 736 mmHg 92%
    09:00 +1°C° 0 mm 4 m/s 736 mmHg 89%
    10:00 +1°C° 0 mm 4 m/s 735 mmHg 86%
    11:00 +1°C° 0 mm 4 m/s 735 mmHg 83%
    12:00 +2°C° 0.2 mm 5 m/s 735 mmHg 78%
    13:00 +2°C° 0.2 mm 5 m/s 735 mmHg 73%
    14:00 +2°C° 0.2 mm 5 m/s 735 mmHg 67%
    15:00 +3°C° 0.1 mm 4 m/s 735 mmHg 69%
    16:00 +1°C° 0.1 mm 4 m/s 735 mmHg 71%
    17:00 +1°C° 0.1 mm 3 m/s 735 mmHg 72%
    18:00 0°C° 0 mm 3 m/s 735 mmHg 75%
    19:00 -1°C° 0 mm 3 m/s 736 mmHg 79%
    20:00 -2°C° 0 mm 2 m/s 736 mmHg 82%
    21:00 -2°C° 0 mm 2 m/s 736 mmHg 82%
    22:00 -3°C° 0 mm 2 m/s 736 mmHg 83%
    23:00 -3°C° 0 mm 2 m/s 735 mmHg 83%

    Après-demain, 25 Mars, Lundi

    Heure Température Précipitation Vent Pression Humidité
    00:00 -4°C° 0 mm 2 m/s 735 mmHg 84%
    01:00 -4°C° 0 mm 2 m/s 735 mmHg 84%
    02:00 -4°C° 0 mm 2 m/s 735 mmHg 84%
    03:00 -5°C° 0 mm 3 m/s 735 mmHg 85%
    04:00 -5°C° 0 mm 3 m/s 735 mmHg 85%
    05:00 -5°C° 0 mm 3 m/s 735 mmHg 86%
    06:00 -4°C° 0 mm 3 m/s 735 mmHg 83%
    07:00 -2°C° 0 mm 3 m/s 735 mmHg 81%
    08:00 -1°C° 0 mm 3 m/s 735 mmHg 78%
    09:00 0°C° 0 mm 3 m/s 735 mmHg 75%
    10:00 +2°C° 0 mm 3 m/s 735 mmHg 71%
    11:00 +3°C° 0 mm 4 m/s 735 mmHg 68%
    12:00 +4°C° 0.2 mm 4 m/s 734 mmHg 65%
    13:00 +4°C° 0.2 mm 4 m/s 734 mmHg 62%
    14:00 +5°C° 0.2 mm 4 m/s 734 mmHg 58%
    15:00 +4°C° 0 mm 3 m/s 734 mmHg 62%
    16:00 +4°C° 0 mm 2 m/s 734 mmHg 66%
    17:00 +3°C° 0 mm 2 m/s 734 mmHg 70%
    18:00 +2°C° 0 mm 2 m/s 734 mmHg 74%
    19:00 +1°C° 0 mm 2 m/s 734 mmHg 77%
    20:00 -2°C° 0 mm 2 m/s 734 mmHg 80%
    21:00 -2°C° 0 mm 2 m/s 733 mmHg 81%
    22:00 -2°C° 0 mm 2 m/s 733 mmHg 82%
    23:00 -2°C° 0 mm 2 m/s 733 mmHg 83%

    26 Mars, Mardi

    Heure Température Précipitation Vent Pression Humidité
    00:00 -2°C° 0 mm 2 m/s 733 mmHg 84%
    01:00 -2°C° 0 mm 2 m/s 733 mmHg 86%
    02:00 -2°C° 0 mm 2 m/s 732 mmHg 87%
    03:00 -2°C° 0 mm 3 m/s 732 mmHg 88%
    04:00 -2°C° 0 mm 3 m/s 732 mmHg 89%
    05:00 -2°C° 0 mm 3 m/s 731 mmHg 90%
    06:00 -1°C° 0.3 mm 3 m/s 731 mmHg 90%
    07:00 -1°C° 0.3 mm 3 m/s 731 mmHg 90%
    08:00 -1°C° 0.3 mm 3 m/s 731 mmHg 91%
    09:00 -2°C° 0.3 mm 4 m/s 732 mmHg 86%
    10:00 -1°C° 0.3 mm 4 m/s 732 mmHg 82%
    11:00 -1°C° 0.3 mm 4 m/s 732 mmHg 77%
    12:00 -2°C° 0.1 mm 4 m/s 732 mmHg 75%
    13:00 -2°C° 0.1 mm 5 m/s 733 mmHg 73%
    14:00 -2°C° 0.1 mm 5 m/s 733 mmHg 70%
    15:00 -2°C° 0 mm 4 m/s 733 mmHg 69%
    16:00 -3°C° 0 mm 4 m/s 734 mmHg 67%
    17:00 -2°C° 0 mm 3 m/s 734 mmHg 66%
    18:00 -4°C° 0 mm 3 m/s 734 mmHg 71%
    19:00 -4°C° 0 mm 3 m/s 735 mmHg 76%
    20:00 -5°C° 0 mm 3 m/s 735 mmHg 81%
    21:00 -6°C° 0 mm 3 m/s 735 mmHg 83%
    22:00 -6°C° 0 mm 3 m/s 736 mmHg 84%
    23:00 -6°C° 0 mm 3 m/s 736 mmHg 86%

    27 Mars, Mercredi

    Heure Température Précipitation Vent Pression Humidité
    00:00 -6°C° 0 mm 3 m/s 736 mmHg 84%
    01:00 -7°C° 0 mm 3 m/s 736 mmHg 82%
    02:00 -8°C° 0 mm 4 m/s 736 mmHg 80%
    03:00 -8°C° 0 mm 4 m/s 737 mmHg 81%
    04:00 -8°C° 0 mm 4 m/s 737 mmHg 82%
    05:00 -8°C° 0 mm 5 m/s 737 mmHg 83%
    06:00 -7°C° 0 mm 5 m/s 738 mmHg 80%
    07:00 -8°C° 0 mm 6 m/s 738 mmHg 78%
    08:00 -6°C° 0 mm 6 m/s 739 mmHg 75%
    09:00 -6°C° 0 mm 6 m/s 739 mmHg 72%
    10:00 -5°C° 0 mm 6 m/s 740 mmHg 69%
    11:00 -4°C° 0 mm 6 m/s 741 mmHg 66%
    12:00 -4°C° 0 mm 6 m/s 741 mmHg 64%
    13:00 -4°C° 0 mm 5 m/s 742 mmHg 63%
    14:00 -2°C° 0 mm 5 m/s 742 mmHg 61%
    15:00 -2°C° 0 mm 5 m/s 742 mmHg 61%
    16:00 -2°C° 0 mm 4 m/s 743 mmHg 61%
    17:00 -2°C° 0 mm 4 m/s 743 mmHg 61%
    18:00 -4°C° 0 mm 3 m/s 744 mmHg 67%
    19:00 -4°C° 0 mm 2 m/s 744 mmHg 73%
    20:00 -5°C° 0 mm 2 m/s 744 mmHg 78%
    21:00 -5°C° 0 mm 2 m/s 744 mmHg 78%
    22:00 -5°C° 0 mm 2 m/s 744 mmHg 79%
    23:00 -5°C° 0 mm 2 m/s 744 mmHg 79%

    28 Mars, Jeudi

    Heure Température Précipitation Vent Pression Humidité
    00:00 -5°C° 0 mm 2 m/s 744 mmHg 76%
    01:00 -6°C° 0 mm 3 m/s 744 mmHg 74%
    02:00 -5°C° 0 mm 3 m/s 744 mmHg 72%
    03:00 -5°C° 0 mm 3 m/s 744 mmHg 74%
    04:00 -5°C° 0 mm 4 m/s 743 mmHg 77%
    05:00 -4°C° 0 mm 4 m/s 743 mmHg 79%
    06:00 -4°C° 0 mm 4 m/s 743 mmHg 79%
    07:00 -3°C° 0 mm 4 m/s 743 mmHg 80%
    08:00 -2°C° 0 mm 5 m/s 743 mmHg 80%
    09:00 -1°C° 0 mm 5 m/s 742 mmHg 78%
    10:00 0°C° 0 mm 5 m/s 742 mmHg 76%
    11:00 0°C° 0 mm 5 m/s 742 mmHg 73%
    12:00 +1°C° 0 mm 5 m/s 741 mmHg 72%
    13:00 +2°C° 0 mm 5 m/s 741 mmHg 70%
    14:00 +2°C° 0 mm 5 m/s 740 mmHg 68%
    15:00 +2°C° 0.1 mm 5 m/s 740 mmHg 71%
    16:00 +2°C° 0.1 mm 5 m/s 739 mmHg 74%
    17:00 +2°C° 0.1 mm 5 m/s 739 mmHg 76%
    18:00 +2°C° 0.2 mm 5 m/s 738 mmHg 79%
    19:00 +1°C° 0.2 mm 4 m/s 738 mmHg 81%
    20:00 +1°C° 0.2 mm 4 m/s 738 mmHg 83%
    21:00 +1°C° 0.2 mm 4 m/s 738 mmHg 83%
    22:00 +1°C° 0.2 mm 5 m/s 738 mmHg 83%
    23:00 +1°C° 0.2 mm 5 m/s 738 mmHg 84%
    Voir plus